GREENCUBE (IO-117)

Last updated on Tue Oct 28 2025 00:03:13 GMT+0000 (Coordinated Universal Time)

1 53109U 22080E 25300.19655152 -.00000003 00000+0 00000+0 0 9996 2 53109 70.1635 19.2627 0008752 338.1294 21.8991 6.42583349 77098
UTC large
Height (km)
Speed (km/s)
/
Latitude / Longitude
Inclination (degrees)
Orbital Period (minutes)
Azimuth
Elevation
Range (km)
Doppler Factor

Next 0 passes for location: London (51.5072 / 0.1276)

Sorry there are no passes over London.